When you browse on this site, cookies collect data to enhance your experience and personalize the content and advertising you see.
Visit our Privacy Policy to learn more. By continuing to use the site, you agree to this use of cookies and data.
  • In Latvia
  • List of Countries
  • For 7 days
  • Water Temperature
  • Weather Map
  • Weather Widgets
  • user-avatar
    Login

    Hourly Weather Le Chatelard

    Today, 16 September, Monday

    Time Temperature Precipitation Wind Pressure Humidity
    00:00 +19°C° 0 mm 1 mps 708 mmHg 76%
    01:00 +18°C° 0.1 mm 1 mps 708 mmHg 78%
    02:00 +18°C° 0.1 mm 1 mps 707 mmHg 80%
    03:00 +18°C° 0.1 mm 1 mps 707 mmHg 83%
    04:00 +18°C° 0 mm 1 mps 707 mmHg 83%
    05:00 +18°C° 0 mm 1 mps 707 mmHg 83%
    06:00 +19°C° 0 mm 1 mps 707 mmHg 82%
    07:00 +21°C° 0 mm 1 mps 707 mmHg 75%
    08:00 +24°C° 0 mm 1 mps 708 mmHg 67%
    09:00 +26°C° 0 mm 1 mps 708 mmHg 59%
    10:00 +27°C° 0.2 mm 1 mps 708 mmHg 57%
    11:00 +28°C° 0.2 mm 1 mps 708 mmHg 55%
    12:00 +28°C° 0.2 mm 1 mps 707 mmHg 53%
    13:00 +28°C° 0.4 mm 1 mps 707 mmHg 56%
    14:00 +27°C° 0.4 mm 1 mps 707 mmHg 59%
    15:00 +27°C° 0.4 mm 1 mps 706 mmHg 62%
    16:00 +25°C° 0.3 mm 1 mps 706 mmHg 69%
    17:00 +20°C° 0.3 mm 0 mps 706 mmHg 77%
    18:00 +18°C° 0.3 mm 0 mps 705 mmHg 84%
    19:00 +20°C° 0 mm 1 mps 706 mmHg 85%
    20:00 +19°C° 0 mm 1 mps 706 mmHg 87%
    21:00 +19°C° 0 mm 1 mps 706 mmHg 88%
    22:00 +18°C° 0 mm 1 mps 706 mmHg 88%
    23:00 +18°C° 0 mm 1 mps 706 mmHg 88%

    Tomorrow, 17 September, Tuesday

    Time Temperature Precipitation Wind Pressure Humidity
    00:00 +18°C° 0 mm 1 mps 706 mmHg 88%
    01:00 +18°C° 0 mm 1 mps 705 mmHg 88%
    02:00 +16°C° 0 mm 1 mps 705 mmHg 88%
    03:00 +16°C° 0 mm 1 mps 705 mmHg 89%
    04:00 +16°C° 0 mm 1 mps 705 mmHg 88%
    05:00 +16°C° 0 mm 1 mps 705 mmHg 88%
    06:00 +18°C° 0 mm 1 mps 705 mmHg 88%
    07:00 +20°C° 0 mm 1 mps 705 mmHg 80%
    08:00 +22°C° 0 mm 1 mps 706 mmHg 72%
    09:00 +25°C° 0 mm 1 mps 706 mmHg 65%
    10:00 +25°C° 0 mm 1 mps 706 mmHg 60%
    11:00 +26°C° 0 mm 1 mps 705 mmHg 54%
    12:00 +27°C° 0 mm 2 mps 705 mmHg 49%
    13:00 +26°C° 0 mm 2 mps 705 mmHg 50%
    14:00 +26°C° 0 mm 2 mps 705 mmHg 50%
    15:00 +25°C° 0 mm 2 mps 704 mmHg 51%
    16:00 +23°C° 0 mm 2 mps 704 mmHg 60%
    17:00 +20°C° 0 mm 1 mps 704 mmHg 69%
    18:00 +18°C° 0 mm 1 mps 704 mmHg 79%
    19:00 +16°C° 0 mm 1 mps 704 mmHg 81%
    20:00 +16°C° 0 mm 2 mps 704 mmHg 83%
    21:00 +15°C° 0 mm 2 mps 704 mmHg 85%
    22:00 +15°C° 0 mm 2 mps 704 mmHg 86%
    23:00 +14°C° 0 mm 2 mps 704 mmHg 87%

    Day after tomorrow, 18 September, Wednesday

    Time Temperature Precipitation Wind Pressure Humidity
    00:00 +14°C° 0 mm 2 mps 704 mmHg 88%
    01:00 +13°C° 0 mm 3 mps 704 mmHg 88%
    02:00 +12°C° 0 mm 3 mps 704 mmHg 87%
    03:00 +12°C° 0 mm 3 mps 704 mmHg 86%
    04:00 +13°C° 0 mm 2 mps 704 mmHg 86%
    05:00 +13°C° 0 mm 2 mps 704 mmHg 86%
    06:00 +13°C° 0 mm 2 mps 704 mmHg 86%
    07:00 +15°C° 0 mm 2 mps 704 mmHg 78%
    08:00 +17°C° 0 mm 2 mps 705 mmHg 71%
    09:00 +19°C° 0 mm 3 mps 705 mmHg 63%
    10:00 +20°C° 0 mm 3 mps 705 mmHg 61%
    11:00 +21°C° 0 mm 3 mps 705 mmHg 58%
    12:00 +22°C° 0 mm 3 mps 705 mmHg 56%
    13:00 +21°C° 0 mm 4 mps 705 mmHg 58%
    14:00 +21°C° 0 mm 4 mps 705 mmHg 61%
    15:00 +20°C° 0 mm 4 mps 705 mmHg 63%
    16:00 +18°C° 0 mm 3 mps 705 mmHg 71%
    17:00 +16°C° 0 mm 3 mps 705 mmHg 79%
    18:00 +13°C° 0 mm 3 mps 705 mmHg 87%
    19:00 +13°C° 0 mm 2 mps 705 mmHg 88%
    20:00 +13°C° 0 mm 2 mps 706 mmHg 89%
    21:00 +12°C° 0 mm 2 mps 706 mmHg 90%
    22:00 +12°C° 0 mm 2 mps 706 mmHg 90%
    23:00 +12°C° 0 mm 2 mps 706 mmHg 91%

    19 September, Thursday

    Time Temperature Precipitation Wind Pressure Humidity
    00:00 +10°C° 0 mm 2 mps 706 mmHg 92%
    01:00 +10°C° 0 mm 2 mps 706 mmHg 92%
    02:00 +10°C° 0 mm 2 mps 706 mmHg 92%
    03:00 +10°C° 0 mm 2 mps 706 mmHg 92%
    04:00 +10°C° 0 mm 2 mps 706 mmHg 92%
    05:00 +10°C° 0 mm 2 mps 706 mmHg 92%
    06:00 +10°C° 0 mm 2 mps 706 mmHg 92%
    07:00 +13°C° 0 mm 2 mps 706 mmHg 85%
    08:00 +14°C° 0 mm 3 mps 707 mmHg 77%
    09:00 +17°C° 0 mm 3 mps 707 mmHg 69%
    10:00 +18°C° 0 mm 3 mps 707 mmHg 64%
    11:00 +19°C° 0 mm 4 mps 707 mmHg 59%
    12:00 +20°C° 0 mm 4 mps 707 mmHg 54%
    13:00 +20°C° 0 mm 4 mps 707 mmHg 55%
    14:00 +19°C° 0 mm 4 mps 707 mmHg 56%
    15:00 +19°C° 0 mm 4 mps 707 mmHg 57%
    16:00 +17°C° 0 mm 4 mps 707 mmHg 66%
    17:00 +14°C° 0 mm 3 mps 707 mmHg 75%
    18:00 +12°C° 0 mm 3 mps 707 mmHg 84%
    19:00 +11°C° 0 mm 3 mps 707 mmHg 86%
    20:00 +11°C° 0 mm 3 mps 707 mmHg 88%
    21:00 +12°C° 0 mm 2 mps 707 mmHg 90%
    22:00 +12°C° 0 mm 2 mps 708 mmHg 91%
    23:00 +10°C° 0 mm 2 mps 708 mmHg 91%

    20 September, Friday

    Time Temperature Precipitation Wind Pressure Humidity
    00:00 +10°C° 0 mm 2 mps 708 mmHg 92%
    01:00 +10°C° 0 mm 2 mps 707 mmHg 93%
    02:00 +10°C° 0 mm 2 mps 707 mmHg 93%
    03:00 +10°C° 0 mm 2 mps 707 mmHg 93%
    04:00 +11°C° 0 mm 1 mps 707 mmHg 92%
    05:00 +11°C° 0 mm 1 mps 707 mmHg 92%
    06:00 +11°C° 0 mm 1 mps 707 mmHg 91%
    07:00 +14°C° 0 mm 1 mps 707 mmHg 82%
    08:00 +16°C° 0 mm 1 mps 708 mmHg 73%
    09:00 +20°C° 0 mm 1 mps 708 mmHg 63%
    10:00 +21°C° 0 mm 1 mps 708 mmHg 61%
    11:00 +21°C° 0 mm 2 mps 708 mmHg 58%
    12:00 +23°C° 0 mm 2 mps 707 mmHg 55%
    13:00 +23°C° 0 mm 2 mps 707 mmHg 57%
    14:00 +21°C° 0 mm 2 mps 707 mmHg 59%
    15:00 +21°C° 0 mm 2 mps 706 mmHg 61%
    16:00 +19°C° 0 mm 2 mps 706 mmHg 70%
    17:00 +18°C° 0 mm 1 mps 706 mmHg 79%
    18:00 +15°C° 0 mm 1 mps 706 mmHg 89%
    19:00 +14°C° 0 mm 1 mps 706 mmHg 89%
    20:00 +14°C° 0 mm 1 mps 706 mmHg 90%
    21:00 +14°C° 0 mm 1 mps 707 mmHg 90%
    22:00 +13°C° 0 mm 1 mps 706 mmHg 90%
    23:00 +13°C° 0 mm 1 mps 706 mmHg 91%

    21 September, Saturday

    Time Temperature Precipitation Wind Pressure Humidity
    00:00 +13°C° 0 mm 1 mps 706 mmHg 91%
    01:00 +13°C° 0 mm 1 mps 706 mmHg 90%
    02:00 +13°C° 0 mm 1 mps 706 mmHg 90%
    03:00 +12°C° 0 mm 1 mps 706 mmHg 89%
    04:00 +13°C° 0 mm 1 mps 706 mmHg 88%
    05:00 +13°C° 0 mm 1 mps 706 mmHg 86%
    06:00 +13°C° 0 mm 1 mps 706 mmHg 85%
    07:00 +16°C° 0 mm 1 mps 706 mmHg 77%
    08:00 +19°C° 0 mm 1 mps 707 mmHg 68%
    09:00 +22°C° 0 mm 1 mps 707 mmHg 59%
    10:00 +23°C° 0 mm 1 mps 707 mmHg 57%
    11:00 +24°C° 0 mm 1 mps 707 mmHg 54%
    12:00 +26°C° 0 mm 1 mps 707 mmHg 51%
    13:00 +25°C° 0.1 mm 1 mps 706 mmHg 55%
    14:00 +25°C° 0.1 mm 1 mps 706 mmHg 59%
    15:00 +24°C° 0.1 mm 1 mps 705 mmHg 63%
    16:00 +22°C° 0.3 mm 1 mps 705 mmHg 71%
    17:00 +20°C° 0.3 mm 1 mps 705 mmHg 79%
    18:00 +18°C° 0.3 mm 1 mps 705 mmHg 87%
    19:00 +16°C° 0 mm 1 mps 705 mmHg 87%
    20:00 +16°C° 0 mm 1 mps 706 mmHg 87%
    21:00 +15°C° 0 mm 1 mps 706 mmHg 87%
    22:00 +15°C° 0 mm 1 mps 706 mmHg 86%
    23:00 +15°C° 0 mm 1 mps 706 mmHg 86%
    Show more